New Orleans Lakefront, LA

12:02 PM CST on November 22, 2019 (GMT -0600)
Lakefront

Weather History for KNEW - September, 2019

Change the Weather History Date:

Tuesday, September 17, 2019

  Actual Average Record
Temperature  
Mean Temperature 86 °F 80 °F  
Max Temperature 96 °F 87 °F 98 °F (2018)
Min Temperature 76 °F 72 °F 63 °F (1976)
Degree Days  
Heating Degree Days 0 0  
Month to date heating degree days 0 0  
Since 1 July heating degree days 0 0  
Cooling Degree Days 21 15  
Month to date cooling degree days 370 276  
Year to date cooling degree days 3011 2522  
Growing Degree Days 35 (Base 50)    
Moisture  
Dew Point 75 °F    
Average Humidity 66    
Maximum Humidity 85    
Minimum Humidity 46    
Precipitation  
Precipitation 0.00 in 0.16 in 2.73 in (1957)
Month to date precipitation 0.02 3.12  
Year to date precipitation 46.78 47.33  
Snow  
Snow 0.00 in - - ()
Month to date snowfall 0.0  
Since 1 July snowfall 0.0  
Since 1 September snowfall 0.0  
Snow Depth 0.00 in    
Sea Level Pressure  
Sea Level Pressure 29.98 in    
Wind  
Wind Speed 6 mph (SE)    
Max Wind Speed 16 mph    
Max Gust Speed 19 mph    
Visibility 10 miles    
Events Thunderstorm    
T = Trace of Precipitation, MM = Missing Value Source: NWS Daily Summary

Daily Weather History Graph

Daily Weather History Graph

Search for Another Location

Airport or City:

Astronomy

Sep. 17, 2019 Rise Set
Actual Time 6:45 AM CDT 7:03 PM CDT
Civil Twilight 6:21 AM CDT 7:27 PM CDT
Nautical Twilight 5:53 AM CDT 7:55 PM CDT
Astronomical Twilight 5:25 AM CDT 8:23 PM CDT
Moon 9:19 PM CDT (9/17) 9:39 AM CDT (9/17)
Length of Visible Light 13h 05m
Length of Day
12h 17m
Waning Gibbous, 89% of the Moon is Illuminated
Sep 17
Waning Gibbous
Sep 21
Last Quarter
Sep 28
New
Oct 5
First Quarter
Oct 13
Full

Hourly Weather History & Observations

Time (CDT) Temp. Heat Index Dew Point Humidity Pressure Visibility Wind Dir Wind Speed Gust Speed Precip Events Conditions
12:53 AM 81.0 °F 87.3 °F 75.9 °F 85% 29.96 in 10.0 mi ESE 4.6 mph - N/A   Clear
1:53 AM 80.1 °F 85.4 °F 75.9 °F 87% 29.96 in 10.0 mi SE 4.6 mph - N/A   Clear
2:53 AM 79.0 °F - 75.9 °F 90% 29.95 in 10.0 mi Calm Calm - N/A   Clear
3:53 AM 81.0 °F 88.6 °F 78.1 °F 91% 29.95 in 10.0 mi ESE 5.8 mph - N/A   Clear
4:53 AM 80.1 °F 85.8 °F 77.0 °F 90% 29.95 in 10.0 mi SE 4.6 mph - N/A   Clear
5:53 AM 80.1 °F 85.8 °F 77.0 °F 90% 29.96 in 9.0 mi ESE 4.6 mph - N/A   Clear
6:53 AM 81.0 °F 88.6 °F 78.1 °F 91% 29.99 in 9.0 mi East 4.6 mph - N/A   Clear
7:53 AM 81.0 °F 88.6 °F 78.1 °F 91% 30.00 in 9.0 mi ENE 8.1 mph - N/A   Clear
8:49 AM 82.4 °F 92.4 °F 78.8 °F 89% 30.02 in 9.0 mi East 9.2 mph - N/A   Partly Cloudy
8:53 AM 82.0 °F 91.0 °F 78.1 °F 88% 30.01 in 9.0 mi East 8.1 mph - N/A   Partly Cloudy
9:53 AM 84.9 °F 93.3 °F 75.0 °F 72% 30.02 in 10.0 mi ESE 8.1 mph - N/A   Scattered Clouds
10:53 AM 88.0 °F 96.5 °F 73.9 °F 63% 30.03 in 10.0 mi ESE 8.1 mph - N/A   Clear
11:53 AM 89.1 °F 98.0 °F 73.9 °F 61% 30.02 in 10.0 mi Variable 6.9 mph 16.1 mph N/A   Partly Cloudy
12:30 PM 89.1 °F 98.0 °F 73.9 °F 61% 30.02 in 10.0 mi East 11.5 mph - N/A   Mostly Cloudy
12:39 PM 90.0 °F 99.0 °F 73.9 °F 59% 30.03 in 10.0 mi East 11.5 mph - N/A   Mostly Cloudy
12:53 PM 90.0 °F 99.0 °F 73.9 °F 59% 30.01 in 10.0 mi East 11.5 mph - N/A   Mostly Cloudy
1:53 PM 91.0 °F 99.3 °F 73.0 °F 55% 29.99 in 10.0 mi SE 8.1 mph - N/A   Partly Cloudy
2:53 PM 91.0 °F 99.3 °F 73.0 °F 55% 29.96 in 10.0 mi ESE 11.5 mph - N/A   Partly Cloudy
3:53 PM 91.9 °F 96.9 °F 69.1 °F 47% 29.95 in 10.0 mi SSE 9.2 mph 17.3 mph N/A   Partly Cloudy
4:53 PM 89.1 °F 97.0 °F 73.0 °F 59% 29.95 in 10.0 mi South 10.4 mph - N/A   Clear
5:41 PM 87.1 °F 94.5 °F 73.0 °F 63% 29.97 in 10.0 mi SSE 9.2 mph - N/A Thunderstorm Clear
5:53 PM 87.1 °F 95.4 °F 73.9 °F 65% 29.95 in 10.0 mi South 10.4 mph - N/A   Partly Cloudy
6:53 PM 84.9 °F 93.3 °F 75.0 °F 72% 29.96 in 10.0 mi South 11.5 mph - N/A   Clear
7:53 PM 84.0 °F 92.6 °F 75.9 °F 76% 29.97 in 10.0 mi SSW 11.5 mph - N/A   Clear
8:53 PM 82.9 °F 90.8 °F 75.9 °F 79% 29.97 in 10.0 mi SSW 6.9 mph - N/A   Clear
9:53 PM 82.9 °F 90.2 °F 75.0 °F 77% 29.96 in 10.0 mi SSE 3.5 mph - N/A   Clear
10:53 PM 81.0 °F 86.7 °F 75.0 °F 82% 29.96 in 10.0 mi South 4.6 mph - N/A   Clear
11:53 PM 82.0 °F 90.2 °F 77.0 °F 85% 29.96 in 10.0 mi SW 6.9 mph - N/A   Scattered Clouds